Regional Weather Roundup
Issued by NWS Albany, NY

Home | Current Version | Previous Version | Graphics & Text | Print | Product List | Glossary On
Versions: 1 2 3 4 5 6 7 8 9 10 11 12 13 14 15 16 17 18 19 20 21 22 23 24 25 26 27 28 29 30 31 32 33 34 35 36 37 38 39 40 41 42 43 44 45 46 47 48 49 50
000
ASUS41 KALY 221010
RWRALY

NEW YORK STATE HOURLY WEATHER ROUNDUP
NATIONAL WEATHER SERVICE ALBANY NY
500 AM EST SAT NOV 22 2014

NOTE: "FAIR" INDICATES FEW OR NO CLOUDS BELOW 12,000 FEET WITH NO
SIGNIFICANT WEATHER AND/OR NO OBSTRUCTIONS TO VISIBILITY.

NYZ032-033-038>043-046>054-057>066-NYZ062>081-221100-
EAST


CITY           SKY/WX    TMP DP  RH WIND       PRES   REMARKS
ALBANY         PTCLDY    20  11  68 S6        30.41F WCI  12
GLENS FALLS    PTCLDY    22  13  68 S9        30.37F WCI  12
POUGHKEEPSIE   CLEAR     24  11  57 S5        30.45F WCI  18
NEWBURGH       CLEAR     19  12  73 CALM      30.44F
MONTGOMERY     CLEAR     17   9  70 SW3       30.43F
WHITE PLAINS   CLEAR     24  10  55 W3        30.44S
ISLIP          CLEAR     23  13  65 W3        30.46F
NEW YORK CITY  CLEAR     30  12  47 W5        30.48S WCI  25
CENTRAL PARK   CLEAR     29  10  45 CALM      30.49S
$$

NYZ005>009-017-018-044>046-055-056-221100-
CENTRAL


CITY           SKY/WX    TMP DP  RH WIND       PRES   REMARKS
FULTON         PTCLDY    24  12  60 S8        30.33F WCI  15
SYRACUSE       PTCLDY    23  12  62 S7        30.34F WCI  15
ROME           PTCLDY    19  11  70 SE5       30.37F WCI  12
ELMIRA         PTCLDY    13   8  81 CALM      30.36F
BINGHAMTON     PTCLDY    18   9  68 SW13      30.32R WCI   5
MONTICELLO     PTCLDY    12   9  85 CALM      30.36S
$$

NYZ026>034-041>043-221100-
NORTH


CITY           SKY/WX    TMP DP  RH WIND       PRES   REMARKS
WATERTOWN      CLOUDY    28  14  55 S13G24    30.29F WCI  17
FORT DRUM      NOT AVBL
MASSENA        CLOUDY    25  17  72 S14       30.24F WCI  13
SARANAC LAKE     N/A     20  15  81 MISG      30.17F
PLATTSBURGH    CLOUDY    24  13  62 S5        30.27F WCI  18
$$

NYZ001>004-010>016-019>021-221100-
WEST


CITY           SKY/WX    TMP DP  RH WIND       PRES   REMARKS
NIAGARA FALLS  MOCLDY    29  19  66 S18       30.26F WCI  16
BUFFALO        CLOUDY    23  11  60 SW20      30.27F WCI   8
DUNKIRK        PTCLDY    23   9  55 S18G30    30.29F WCI   9
JAMESTOWN      PTCLDY    16   7  67 S12       30.25F WCI   3
WELLSVILLE     PTCLDY    19   6  57 SW10      30.26F WCI   7
ROCHESTER      MOCLDY    24  11  57 S12G21    30.30F WCI  13
PENN YAN       PTCLDY    22  11  62 S12       30.31F WCI  10
$$

             KEY
       WCI = WIND CHILL INDEX
       VSB = VISIBILITY
       HX  = HEAT INDEX
$$



USA.gov is the U.S. government's official web portal to all federal, state and local government web resources and services.